Погода в Спарте

Россия / Карачаево-Черкесская Республика     44°24′47″N   41°47′53″E
темп.,
°C
ветер,
м/с
пор.,
м/с
влажн.,
%
обл.,
%
осадки,
мм/ч
давл.,
гПа
погр.,
м
23 апреля, пт
пт2300:00+9з3695100 0.4 1023251
03:00+7з38944 0.6 1024167
06:00+6з23911 0.0 102568
09:00+12сз23670 0.0 1025792
12:00+15сз34504 0.0 10231657
15:00+16ссз434949 0.0 10221716
18:00+14ссв3466100 0.0 1021135
21:00+11в116798 0.0 102112
24 апреля, сб
сб2400:00+9всв1173100 0.0 101911
03:00+9юз1175100 0.0 102017
06:00+9зюз2283100 0.1 102072
09:00+13сз1154100 0.1 1019732
12:00+16зсз2347100 0.0 10191276
15:00+16зсз455382 0.0 10191694
18:00+14сз356984 0.1 1019269
21:00+12сз2577100 0.1 1021189
25 апреля, вс
вс2500:00+10зсз2586100 0.0 1021232
03:00+9ссз2493100 0.0 1022268
06:00+8с2289100 0.1 1021204
09:00+9св2384100 0.1 1021411
12:00+9в4682100 0.0 1020394
15:00+11в6883100 0.1 1017813
18:00+10всв5888100 0.0 1017685
21:00+8всв51093100 0.3 1017520
26 апреля, пн
пн2600:00+9в4996100 2.9 1015535
03:00+8всв2396100 4.8 1014142
06:00+8в1294100 0.0 1015116
09:00+10ссв1189100 0.0 1015352
12:00+12ссв2380100 0.1 1015634
15:00+9ссз4595100 1.4 1016327
18:00+8сз2397100 1.9 1017232
21:00+8ссз2298100 2.5 1018161
27 апреля, вт
вт2700:00+8с2398100 0.1 1017195
03:00+7с3498100 1.4 1017244
06:00+7с2298100 1.3 1018194
09:00+8вюв2395100 2.2 1018276
12:00+9вюв3489100 0.5 1018480
15:00+13вюв337584 0.6 1016859
18:00+12всв2277100 0.0 1016213
21:00+10вюв2282100 0.0 101748